CAPE
1600 915 1061 1084 352 32 3 14 64 96 50 124 133 102 83 71 18 1 4 95 210 179 377 588 1832 1142 993 1143 1263 1053 1155 1859 2293 2573 2824 2626 2465 2624 2387 2359 2442 2447 2238 2191 2317 2333 2319 2233 1979
958 968 1165 989 22 0 0 0 53 76 138 226 211 187 197 101 154 133 118 412 380 315 357 879 1638 1681 1295 1440 1621 1422 1420 1971 2671 2729 3058 2916 2760 2657 2499 2428 2303 2197 2232 2191 2154 2055 1913 1975 1978
928 971 1086 840 37 19 0 0 66 243 334 302 236 278 211 167 220 186 279 636 801 687 776 1062 1714 1741 1773 1965 2001 2414 2501 2642 2563 3007 2839 2871 3023 2647 2325 2212 2211 2251 2118 1933 1844 1834 1878 1815 1920
835 742 752 115 17 34 32 0 224 439 392 321 280 407 447 294 314 363 701 879 917 1081 1131 1827 1905 1847 1977 2085 2180 2246 2678 2862 3057 3197 2845 2883 2397 2044 2019 1920 2039 2063 1931 1826 1725 1714 1762 1880 1845
676 203 12 0 37 106 60 44 247 280 487 424 440 470 409 471 406 560 807 868 1203 1337 1654 1742 2363 2529 2092 2078 2162 2718 2923 2660 3123 3196 2707 2585 2333 2158 2141 2210 2211 2059 1923 1876 1835 1841 1805 1838 1925
72 21 3 0 149 193 106 74 237 624 588 438 380 370 594 456 355 665 731 888 1598 1861 1916 2016 2380 2168 2430 2673 2851 3096 3097 3083 3160 2666 2470 2407 2352 2239 2196 2116 1914 1759 1669 1742 1698 1809 1928 2082 2280
137 1 5 0 197 226 149 433 584 637 507 460 396 337 719 472 546 669 775 1277 1809 1914 2142 2317 2388 2397 2659 3167 3069 3083 2738 2587 2522 2413 2562 2295 2207 2388 2257 2081 1951 1840 1788 1823 1946 1941 2241 2249 2396
30 0 0 0 213 262 260 596 655 429 592 503 318 333 468 582 748 705 834 1364 1878 2016 2188 2286 2387 2254 2484 2896 2451 2281 2431 2250 2325 2429 2391 2351 2254 2105 1863 2087 2372 2143 2135 2322 2148 2002 2111 2106 2197
28 15 12 14 113 145 319 639 554 778 582 490 482 335 504 891 860 831 1000 1436 1692 1677 1911 2179 2185 2299 2520 2694 2221 2216 2101 2224 2025 1960 2349 2604 1866 1698 1926 1778 1845 1710 1774 1906 2263 1907 1827 2004 1755
33 26 24 23 7 114 273 537 697 548 460 568 551 692 973 1060 950 900 836 915 1222 1332 1694 1948 2074 2272 2462 2723 2513 2149 1922 1892 1959 1933 2032 1985 1613 1446 1103 1442 1637 1421 1098 2042 2053 1804 2020 1497 1044
5 2 0 3 0 115 193 503 614 270 440 564 489 830 1065 1089 995 993 860 813 995 1379 1764 1934 2061 2233 2344 2670 2466 2126 1982 1723 1912 1902 1876 1874 1062 744 1120 666 618 677 1459 1273 1316 1099 923 866 790
3 8 10 0 0 101 138 251 440 219 277 492 477 781 1071 1115 1100 1040 941 1088 1191 1461 1712 1928 1999 2061 2139 2083 2205 1985 1867 1851 1664 1652 1619 1604 933 807 733 585 758 982 982 898 637 667 708 656 557
0 3 6 10 0 43 35 202 382 180 414 564 586 872 954 1012 1143 1110 1102 1339 1246 1383 1581 1694 1866 2097 2067 1946 1947 1916 1804 1853 1695 1502 1401 1271 955 853 743 728 864 871 746 747 688 677 616 382 412
0 2 18 32 0 5 89 252 332 309 642 845 714 813 890 909 1148 1164 1353 1422 1362 1424 1486 1613 1726 1911 2075 2040 1903 1797 1534 1643 1461 1345 1252 1202 1038 1005 902 811 759 643 618 557 684 622 426 178 194
0 1 13 25 23 226 190 259 244 374 655 954 1005 998 982 1055 1277 1220 1389 1465 1412 1492 1519 1633 1733 2055 1890 1939 1535 1378 1427 1260 1279 1260 1019 1241 1245 1211 1175 927 785 620 510 394 341 410 382 308 147
7 1 20 23 35 209 161 128 403 419 490 810 1067 1082 1106 1159 1298 1317 1359 1405 1367 1429 1500 1552 1908 1978 1707 1769 1672 1487 1366 1392 1431 1373 1338 1365 1247 1271 1258 1007 612 572 473 448 440 400 294 224 134
0 0 21 19 18 146 83 74 384 396 368 648 965 970 993 1087 1165 1262 1344 1343 1257 1393 1402 1442 1806 2032 1859 1638 1693 1746 1606 1547 1465 1355 1216 1209 1142 978 844 747 690 610 586 570 473 339 370 289 206
0 0 23 32 38 74 75 126 364 319 299 374 562 676 825 899 968 1034 1110 1202 1127 1229 1291 1411 1657 1897 1802 1577 1703 1785 1619 1377 1311 1169 1056 982 1017 961 679 710 662 760 546 470 336 338 303 278 268
0 39 36 32 42 63 102 108 338 236 232 220 253 317 422 607 636 750 839 1043 978 1057 1166 1452 1585 1771 1834 1631 1713 1816 1465 1415 1463 1365 1127 1063 919 933 913 718 649 385 358 245 329 310 294 203 218
0 10 18 27 17 69 65 91 243 232 183 158 155 189 233 362 472 533 580 757 608 710 1031 1308 1669 1877 1870 1783 1696 1595 1577 1556 1489 1457 1426 1226 941 998 865 493 279 341 307 136 99 126 141 210 250
0 0 0 1 2 14 48 70 95 232 232 184 116 93 100 133 216 256 287 315 595 582 867 1131 1558 1816 1806 1730 1612 1687 1603 1672 1587 1605 1228 1440 1174 811 536 373 300 213 13 17 13 19 80 178 233
0 0 6 0 3 1 52 0 71 113 195 195 159 114 93 116 128 145 188 257 401 498 681 754 1149 1522 1641 1689 1772 1764 1541 1531 1624 1530 1528 1725 1108 749 465 6 7 3 1 19 2 112 183 190 63
0 0 0 0 0 3 32 3 0 67 77 131 145 140 118 111 152 204 225 264 313 579 517 549 842 1130 1335 1432 1650 1910 1663 1514 1340 953 800 1498 1082 984 0 0 0 15 79 11 0 26 44 76 69
0 0 1 1 0 0 0 0 0 17 98 130 142 150 151 156 273 286 345 413 328 686 658 488 633 747 1004 1265 1522 1750 1669 1561 1514 796 375 1258 1378 74 0 0 0 42 26 0 0 0 0 0 28
0 0 0 0 0 0 0 0 0 0 69 106 128 157 194 235 356 495 457 641 565 658 783 664 690 813 1109 1334 1535 1694 1727 1665 1680 648 550 1172 684 0 0 0 0 5 0 0 0 0 0 0 9
0 0 0 0 0 0 0 0 0 5 5 66 76 125 151 249 416 539 642 616 804 689 840 745 885 941 1244 1525 1644 1747 1963 2019 2412 1542 281 566 14 0 0 0 0 0 0 0 0 0 0 0 10
0 0 0 0 0 0 0 0 0 0 0 6 32 101 141 159 369 541 641 738 928 841 886 805 1049 1132 1289 1557 1765 1949 2317 2329 2905 500 163 83 0 0 0 0 0 0 0 0 0 0 0 0 0
0 0 0 0 0 0 0 0 0 0 0 0 1 32 96 125 339 440 576 718 962 949 914 887 1086 1252 1328 1499 1659 1930 2324 2725 1925 16 51 12 0 0 0 0 0 0 0 0 0 0 0 0 0
0 0 0 0 0 0 0 0 0 0 0 0 0 8 30 76 188 407 631 781 953 974 914 998 1173 1370 1453 1437 1530 1626 2105 2384 278 0 0 0 0 0 0 0 0 0 0 0 0 0 0 0 0
0 0 0 0 0 0 0 0 0 0 0 0 0 2 11 41 119 260 579 808 910 912 909 1010 1223 1394 1507 1478 1546 1455 1694 1955 714 1 1 8 25 9 0 0 0 0 0 0 0 0 0 0 11
CIN
-251 -312 -145 -95 -40 -31 -27 -13 -32 -52 -85 -44 -62 -53 -108 -107 -89 -12 -112 -54 -26 -28 -10 -12 0 0 -1 -2 -3 -2 -1 0 0 0 0 0 0 0 -9 -6 -2 -6 -12 -6 -2 -5 0 0 -1
-371 -229 -116 -60 -33 0 0 0 -15 -13 -82 -67 -87 -79 -100 -109 -87 -61 -40 -13 -26 -36 -23 -7 0 0 0 0 0 -1 0 0 0 0 0 0 0 0 0 0 -4 -6 -7 -10 -10 -2 -1 -1 -1
-296 -157 -87 -44 -53 -30 0 0 -66 -58 -46 -50 -94 -89 -70 -77 -57 -85 -48 -6 -5 -8 -18 -7 0 0 0 0 0 0 0 0 0 0 0 0 0 0 0 -4 -7 -7 -13 -23 -15 -6 -2 -6 -1
-163 -158 -57 -34 -25 -45 -50 0 -84 -49 -48 -42 -110 -64 -43 -52 -58 -73 -8 -2 -4 -6 -12 -1 0 0 0 0 0 0 0 0 0 0 0 0 0 -1 -4 -12 -10 -8 -16 -15 -6 -4 -2 -4 -2
-162 -177 -9 0 -61 -66 -51 -107 -71 -78 -75 -71 -89 -31 -45 -9 -78 -50 -4 -2 -2 -4 -2 -3 0 0 0 0 0 0 0 0 0 0 0 0 0 -1 -5 -9 -8 -9 -6 -4 -2 -1 0 0 0
-133 -115 -10 0 -76 -86 -74 -107 -92 -99 -113 -106 -91 -83 -21 -18 -89 -30 -14 -5 -1 -2 -3 -1 0 0 0 0 0 0 0 0 0 -1 -1 -2 -2 -5 -10 -13 -13 -11 -16 -4 -3 0 0 0 0
-219 -7 -36 0 -77 -74 -95 -125 -106 -117 -156 -133 -140 -117 -26 -40 -49 -43 -18 -3 -1 -3 -2 -2 -2 -1 0 0 0 0 0 0 -3 -5 -4 -7 -10 -4 -5 -9 -8 -8 -13 -2 0 0 -1 -1 0
-111 0 -60 0 -86 -64 -116 -106 -104 -134 -114 -147 -152 -151 -107 -75 -39 -43 -14 -1 -1 -1 -2 -3 -3 -3 -2 -1 -1 -1 -2 -7 -7 -5 -6 -7 -9 -9 -11 -8 -5 -3 -1 0 -2 -7 -7 -5 -8
-93 -25 -28 -28 -98 -84 -132 -121 -134 -100 -160 -144 -150 -191 -192 -77 -37 -17 -2 0 0 -3 -2 -2 -3 -5 -3 -2 -5 -5 -4 -2 -4 -10 -3 -7 -25 -27 -20 -23 -20 -20 -12 -13 -8 -10 -12 -10 -23
-92 -36 -42 -41 -103 -132 -146 -146 -152 -174 -189 -173 -195 -191 -114 -65 -51 -44 -48 -25 0 0 -2 -6 -8 -5 -6 -3 -3 -6 -6 -7 -12 -19 -18 -28 -33 -31 -42 -49 -36 -36 -39 -12 -14 -14 -16 -48 -60
-50 -30 -4 -12 -1 -153 -136 -148 -130 -209 -197 -241 -309 -249 -137 -86 -73 -51 -65 -82 -58 -7 -4 -2 -5 -3 -2 0 -3 -9 -14 -27 -25 -24 -25 -27 -53 -64 -66 -52 -162 -143 -53 -63 -70 -86 -54 -75 -55
-5 -9 -51 -4 0 -141 -125 -152 -185 -235 -195 -220 -309 -267 -181 -143 -117 -98 -87 -42 -21 -1 -5 -3 -4 -7 -5 -9 -8 -18 -30 -29 -37 -34 -32 -31 -71 -25 -35 -150 -88 -58 -59 -24 -49 -49 -43 -50 -117
0 -4 -9 -96 0 -97 -151 -170 -208 -207 -218 -300 -322 -229 -206 -173 -135 -109 -86 -35 -36 -12 -7 -14 -6 -3 -6 -8 -16 -21 -31 -31 -36 -43 -45 -44 -65 -46 -48 -20 -37 -63 -55 -46 -40 -49 -42 -58 -121
0 -1 -5 -44 0 -137 -192 -179 -154 -194 -248 -260 -278 -250 -221 -204 -149 -125 -63 -38 -31 -33 -30 -30 -26 -18 -10 -15 -22 -31 -51 -45 -46 -55 -66 -64 -59 -37 -32 -22 -20 -25 -43 -69 -41 -43 -65 -56 -42
0 -1 -113 -142 -161 -201 -159 -154 -136 -226 -243 -217 -210 -202 -183 -156 -104 -117 -88 -57 -65 -57 -60 -52 -50 -18 -33 -29 -41 -61 -63 -70 -74 -73 -65 -42 -30 -25 -24 -25 -15 -20 -19 -36 -46 -43 -42 -50 -132
-54 -5 -45 -122 -168 -159 -100 -122 -274 -260 -268 -208 -169 -162 -158 -146 -117 -84 -70 -69 -73 -67 -58 -67 -48 -37 -54 -42 -34 -28 -34 -41 -52 -46 -39 -25 -26 -20 -20 -19 -41 -24 -22 -14 -34 -26 -66 -96 -139
0 0 -24 -115 -50 -157 -136 -189 -292 -298 -295 -233 -180 -167 -162 -138 -117 -102 -83 -71 -80 -64 -65 -66 -61 -41 -47 -45 -26 -23 -17 -16 -12 -13 -16 -12 -11 -8 -22 -24 -11 -12 -7 -24 -21 -38 -41 -97 -131
0 -2 -36 -71 -180 -178 -156 -173 -309 -321 -310 -280 -228 -190 -168 -162 -176 -132 -87 -68 -71 -60 -59 -65 -74 -52 -31 -37 -27 -19 -8 -12 -5 -8 -13 -10 -9 -6 -21 -36 -32 -7 -22 -21 -31 -34 -61 -85 -87
0 -54 -56 -81 -114 -157 -157 -200 -318 -349 -340 -335 -302 -280 -254 -218 -176 -134 -102 -66 -66 -59 -35 -64 -55 -53 -29 -19 -22 -9 -15 -16 -9 -4 -21 -12 -11 -9 -5 -2 -21 -32 -21 -41 -29 -56 -81 -130 -99
0 -38 -48 -54 -104 -106 -127 -161 -320 -304 -223 -215 -334 -309 -293 -248 -195 -160 -130 -89 -108 -103 -48 -72 -40 -30 -33 -22 -23 -26 -20 -11 -9 -6 -4 -2 -10 -10 -3 -29 -47 -20 -24 -101 -145 -142 -162 -134 -124
0 0 0 -19 -34 -162 -184 -166 -287 -317 -267 -259 -366 -349 -316 -287 -262 -226 -204 -220 -128 -149 -94 -111 -50 -33 -32 -34 -25 -11 -9 -7 -8 -4 -24 -19 -11 -6 -20 -43 -44 -59 -87 -223 -245 -207 -139 -137 -135
0 0 -45 0 -135 -31 -137 0 -192 -265 -304 -304 -300 -333 -333 -307 -298 -265 -240 -216 -210 -173 -112 -211 -110 -61 -50 -51 -27 -20 -26 -17 -21 -17 -12 -7 -11 -12 -23 -39 -120 -37 -11 -178 -62 -154 -132 -133 -223
0 0 -1 0 -16 -103 -148 -26 0 -245 -263 -326 -328 -319 -282 -263 -239 -181 -198 -195 -172 -105 -144 -218 -140 -111 -86 -69 -55 -24 -28 -26 -35 -65 -65 -23 -29 -20 -1 0 0 -189 -122 -152 0 -237 -251 -224 -234
0 0 -1 -2 0 0 0 0 0 -299 -247 -259 -369 -269 -219 -195 -161 -147 -121 -96 -111 -90 -92 -269 -227 -203 -158 -142 -93 -53 -27 -26 -30 -94 -183 -47 -17 -29 0 0 0 -131 -180 0 0 0 0 0 -137
0 0 0 0 0 0 0 0 0 -26 -269 -232 -307 -318 -319 -208 -156 -130 -133 -104 -112 -112 -104 -352 -314 -274 -252 -191 -124 -84 -54 -40 -31 -134 -173 -70 -76 0 0 0 0 -74 0 0 0 0 0 0 -6
0 0 0 0 0 0 0 0 0 -132 -69 -258 -274 -329 -297 -268 -188 -150 -131 -106 -93 -102 -103 -355 -318 -301 -279 -220 -153 -115 -72 -42 -11 -52 -225 -140 -116 0 0 0 0 0 0 0 0 0 0 0 -90
0 0 0 0 0 0 0 0 0 0 0 -70 -295 -284 -275 -425 -372 -178 -144 -112 -91 -96 -119 -360 -311 -298 -280 -211 -163 -125 -64 -41 -4 -181 -252 -227 0 0 0 0 0 0 0 0 0 0 0 0 0
0 0 0 0 0 0 0 0 0 0 0 0 -24 -336 -295 -259 -413 -312 -301 -144 -126 -115 -109 -348 -323 -302 -287 -217 -162 -130 -87 -45 -71 -370 -303 -267 0 0 0 0 0 0 0 0 0 0 0 0 0
0 0 0 0 0 0 0 0 0 0 0 0 0 -359 -296 -248 -448 -376 -447 -314 -151 -138 -123 -132 -335 -288 -266 -228 -172 -154 -98 -46 -134 0 0 0 0 0 0 0 0 0 0 0 0 0 0 0 0
0 0 0 0 0 0 0 0 0 0 0 0 0 -96 -194 -160 -457 -391 -513 -437 -350 -227 -184 -189 -370 -322 -289 -233 -152 -147 -110 -61 -95 -129 -408 -316 -254 -251 0 0 0 0 0 0 0 0 0 0 -68
Wind_Speed
23 23 26 22 21 nan nan nan nan nan nan 14 16 13 nan nan nan nan nan nan 8 13 14 15 17 18 18 17 15 14 14 15 14 13 13 14 15 15 16 16 15 12 12 10 7 6 6 4 4
20 24 21 21 nan nan nan nan nan nan 11 2 7 12 19 18 17 8 7 9 12 15 18 18 17 18 16 16 16 16 18 15 12 13 14 14 14 13 14 13 10 10 10 8 7 6 6 6 5
22 17 15 18 nan nan nan nan nan 8 9 9 7 12 19 18 11 12 10 7 11 15 16 19 17 16 14 14 14 15 15 14 12 12 14 12 11 11 10 8 9 9 9 10 10 9 7 7 7
22 17 13 14 nan nan nan nan 8 7 7 10 5 13 14 10 16 13 7 7 11 13 14 14 14 13 12 13 12 13 14 13 10 11 12 12 12 12 11 12 11 9 8 9 8 7 7 6 8
18 23 nan nan nan 19 nan nan 13 8 6 3 12 10 10 15 8 4 6 6 8 12 11 11 13 13 15 14 13 13 13 11 10 11 13 13 12 11 10 10 10 7 7 7 9 8 8 9 8
nan nan nan nan 21 19 14 nan 13 11 9 2 7 10 10 2 3 6 6 5 7 9 9 9 12 13 13 15 13 12 13 13 16 15 15 15 15 13 11 10 9 8 7 7 9 8 7 8 8
7 nan nan nan 20 17 20 17 13 12 12 6 7 7 6 3 6 1 2 4 4 3 4 5 5 9 13 16 17 17 16 18 18 16 14 13 15 11 12 13 10 8 6 6 7 5 4 5 6
nan nan nan nan 24 19 20 16 16 12 11 8 10 5 5 6 10 10 6 5 2 3 3 4 4 4 6 9 15 16 17 18 18 15 12 12 16 17 16 13 11 9 7 7 5 3 1 2 1
nan nan nan nan 22 20 20 14 15 11 14 13 11 12 9 12 10 8 6 4 2 3 3 5 6 6 8 9 12 12 16 16 16 15 14 12 9 9 10 9 12 11 9 5 3 2 3 8 9
nan nan nan nan nan 16 22 16 14 10 13 8 6 13 18 14 12 8 5 5 5 5 6 9 9 9 7 7 8 8 9 9 11 12 12 10 9 9 9 7 11 10 9 5 5 6 7 9 8
nan nan nan nan nan 16 17 17 16 15 16 16 19 21 21 15 12 10 9 8 9 8 7 9 8 8 8 8 8 7 8 9 11 12 10 7 5 7 8 9 10 11 8 8 7 8 8 5 4
nan nan nan nan nan 16 19 11 13 18 14 12 17 22 19 17 13 10 9 7 7 10 11 9 8 9 11 10 11 9 9 9 9 10 9 8 7 8 10 12 13 12 11 9 7 6 5 4 3
nan nan nan nan nan nan nan 13 13 17 7 12 16 19 19 17 15 11 11 9 9 10 13 13 9 11 12 12 11 10 10 10 9 10 10 8 9 10 10 10 12 12 12 9 9 10 8 7 7
nan nan nan nan nan nan nan 12 8 14 14 15 16 17 16 17 17 13 12 12 12 12 13 11 11 11 10 11 13 12 11 12 11 10 11 12 8 10 10 10 11 13 13 12 11 11 10 9 8
nan nan nan nan nan 12 4 12 18 13 17 19 17 14 14 15 12 12 11 10 10 10 9 9 9 7 9 11 11 10 12 10 11 10 11 12 11 11 10 9 10 10 11 12 11 12 12 11 11
nan nan nan nan nan 14 10 18 11 15 19 22 20 15 12 12 13 11 9 8 7 6 8 9 8 6 7 7 8 6 8 9 12 10 10 11 10 12 12 10 9 9 10 10 11 11 11 13 12
nan nan nan nan nan 11 nan nan 16 16 18 20 18 19 13 9 9 8 6 6 4 4 6 6 5 4 2 2 2 3 5 6 7 5 7 9 9 9 11 10 11 11 10 11 12 12 14 14 13
nan nan nan nan nan nan nan 13 15 22 20 25 13 14 16 13 12 10 7 5 3 4 4 4 2 2 3 2 2 1 2 3 6 7 5 8 9 11 12 12 13 13 12 12 14 15 14 15 15
nan nan nan nan nan nan 8 5 17 23 21 25 13 10 12 14 14 14 11 8 5 2 1 1 1 1 2 1 4 4 4 5 5 7 9 9 10 12 14 14 14 16 15 14 15 15 14 15 18
nan nan nan nan nan nan nan nan 10 18 25 25 20 14 11 9 8 12 13 11 7 7 4 2 1 1 1 4 6 5 6 5 7 8 9 11 12 16 17 18 18 19 18 16 nan 16 14 13 16
nan nan nan nan nan nan nan nan nan 9 11 16 16 nan 11 12 11 12 12 12 8 5 4 5 5 3 4 8 11 9 9 9 10 11 13 15 18 19 20 21 20 20 nan nan nan nan nan 18 17
nan nan nan nan nan nan nan nan nan 8 14 15 20 20 nan 14 13 14 11 11 10 8 8 8 7 7 10 13 13 15 15 14 14 18 19 21 24 25 25 nan nan nan nan nan nan 21 21 21 nan
nan nan nan nan nan nan nan nan nan nan nan 19 20 24 23 24 22 16 13 13 13 12 12 13 12 13 16 18 18 19 20 22 25 26 24 25 27 28 nan nan nan nan nan nan nan nan nan nan nan
nan nan nan nan nan nan nan nan nan nan nan 19 13 22 23 23 28 24 19 18 12 14 15 17 19 19 21 22 24 27 31 33 29 24 24 26 28 nan nan nan nan nan nan nan nan nan nan nan nan
nan nan nan nan nan nan nan nan nan nan nan 24 19 18 20 24 25 27 19 15 12 16 16 18 19 20 25 29 30 29 28 28 29 25 24 26 27 nan nan nan nan nan nan nan nan nan nan nan nan
nan nan nan nan nan nan nan nan nan nan nan nan nan 8 11 18 18 25 25 22 18 16 17 18 20 20 21 24 25 24 25 21 20 21 22 27 nan nan nan nan nan nan nan nan nan nan nan nan nan
nan nan nan nan nan nan nan nan nan nan nan nan nan 14 15 18 21 24 23 22 22 15 14 20 19 17 21 23 22 23 23 22 22 24 24 nan nan nan nan nan nan nan nan nan nan nan nan nan nan
nan nan nan nan nan nan nan nan nan nan nan nan nan nan nan 15 21 21 24 25 21 18 15 16 17 21 23 26 28 28 29 30 30 nan nan nan nan nan nan nan nan nan nan nan nan nan nan nan nan
nan nan nan nan nan nan nan nan nan nan nan nan nan nan nan nan 20 20 24 25 27 18 17 16 17 21 23 27 30 35 35 37 37 nan nan nan nan nan nan nan nan nan nan nan nan nan nan nan nan
nan nan nan nan nan nan nan nan nan nan nan nan nan nan nan nan 20 23 22 23 20 15 18 19 19 24 27 27 29 34 34 40 36 nan nan nan nan nan nan nan nan nan nan nan nan nan nan nan nan
Wind_Direction
53 81 98 98 85 nan nan nan nan nan nan 136 137 136 nan nan nan nan nan nan 107 93 96 79 52 50 46 45 36 38 29 26 21 32 37 39 32 33 33 30 24 17 23 14 345 335 2 42 107
64 72 94 104 nan nan nan nan nan nan 121 133 162 140 144 141 127 97 101 105 109 100 92 87 69 57 46 36 29 28 32 30 35 38 37 43 47 36 33 27 21 18 18 26 35 43 70 78 110
60 73 85 89 nan nan nan nan nan 48 62 127 132 155 145 127 120 101 99 99 111 96 88 81 55 48 34 39 33 32 38 37 37 36 42 32 33 17 16 29 31 29 19 12 30 47 91 115 122
72 74 68 81 nan nan nan nan 31 51 109 155 148 166 162 146 123 108 88 107 98 90 83 64 42 35 33 30 35 32 34 33 31 26 29 21 11 15 20 34 33 33 37 36 41 54 82 131 140
86 56 nan nan nan 103 nan nan 60 54 120 183 145 142 166 150 165 131 98 95 100 95 88 68 37 29 24 22 28 24 18 16 20 26 27 23 15 17 21 46 65 61 51 64 69 69 95 108 130
nan nan nan nan 79 89 97 nan 86 87 356 303 200 145 133 217 193 127 114 114 105 101 95 65 28 23 22 22 21 20 18 19 24 25 20 12 6 8 9 29 53 73 72 69 83 86 95 111 119
98 nan nan nan 52 75 67 70 47 68 35 343 291 159 155 348 308 221 160 164 136 89 48 31 27 24 8 12 9 2 8 13 17 20 14 12 14 26 29 36 46 57 73 84 88 93 90 104 118
nan nan nan nan 43 59 54 61 39 29 63 5 359 14 54 9 302 277 260 254 297 332 356 11 31 30 35 31 17 14 14 17 22 26 25 31 22 37 41 44 55 58 63 90 97 99 126 314 216
nan nan nan nan 33 47 40 42 52 41 9 46 18 1 3 350 311 279 269 253 253 62 50 63 60 72 67 65 59 34 31 26 25 30 27 34 39 44 42 31 43 53 59 84 102 347 265 249 253
nan nan nan nan nan 30 23 39 35 21 27 53 346 320 331 341 333 327 337 345 7 28 74 79 77 83 81 80 69 49 44 39 37 38 34 27 25 38 32 53 39 41 36 348 330 330 278 269 287
nan nan nan nan nan 11 18 25 31 8 64 53 0 344 345 351 350 353 14 16 29 71 105 96 96 89 74 76 77 68 58 40 30 37 40 33 34 36 19 20 18 15 15 355 334 329 321 307 311
nan nan nan nan nan 30 23 21 28 23 59 44 2 351 356 0 7 24 36 58 77 88 95 113 97 80 78 78 70 63 51 44 37 36 39 45 53 48 37 27 30 36 33 13 8 2 6 3 24
nan nan nan nan nan nan nan 39 42 41 30 347 352 352 11 20 26 48 57 73 81 92 94 92 81 83 74 70 66 56 53 44 45 45 51 49 49 60 66 48 43 42 37 33 19 13 15 15 21
nan nan nan nan nan nan nan 63 28 50 2 354 357 7 20 30 35 55 75 85 83 86 81 94 90 81 76 62 54 54 50 50 47 43 56 48 55 61 53 48 39 32 30 34 36 34 34 37 35
nan nan nan nan nan 117 51 85 63 16 7 8 10 20 30 42 49 54 60 68 68 80 81 81 77 80 56 50 54 48 60 47 47 43 41 48 54 37 33 34 39 27 22 28 27 27 22 21 24
nan nan nan nan nan 82 71 83 79 16 2 11 16 18 32 42 45 46 56 66 77 81 65 68 69 70 70 46 38 40 57 51 48 50 46 38 37 21 10 8 11 10 0 359 8 4 8 359 358
nan nan nan nan nan 69 nan nan 36 7 0 4 18 20 25 39 43 52 47 44 49 37 45 46 49 49 14 59 26 44 38 37 27 41 37 18 11 5 348 350 348 346 340 343 347 346 347 345 340
nan nan nan nan nan nan nan 62 7 18 7 2 13 19 23 18 14 7 9 33 34 31 51 70 66 353 347 357 317 257 283 353 347 357 8 351 350 348 339 334 338 330 333 338 340 344 340 340 334
nan nan nan nan nan nan 78 28 12 13 17 11 9 21 17 28 14 359 353 345 351 53 147 77 332 35 319 225 280 293 316 287 298 315 334 334 329 325 322 321 317 317 323 324 326 324 331 327 322
nan nan nan nan nan nan nan nan 15 25 13 8 8 24 27 27 352 339 344 340 330 346 354 282 18 232 28 256 267 284 295 303 302 306 319 328 331 326 324 318 320 321 313 310 nan 316 316 318 321
nan nan nan nan nan nan nan nan nan 46 12 16 9 nan 20 21 359 329 320 336 321 305 300 304 324 341 266 274 266 270 279 287 298 308 310 317 319 320 319 322 321 318 nan nan nan nan nan 328 328
nan nan nan nan nan nan nan nan nan 354 10 18 15 14 nan 19 10 1 315 315 318 316 295 302 309 313 282 294 295 296 298 299 303 308 308 312 312 311 314 nan nan nan nan nan nan 319 321 324 nan
nan nan nan nan nan nan nan nan nan nan nan 47 27 3 4 10 4 345 344 321 300 294 293 295 291 287 286 298 305 304 296 297 298 298 304 308 306 307 nan nan nan nan nan nan nan nan nan nan nan
nan nan nan nan nan nan nan nan nan nan nan 57 4 2 356 353 352 336 321 329 281 275 283 287 292 296 293 300 305 311 311 305 304 304 304 305 303 nan nan nan nan nan nan nan nan nan nan nan nan
nan nan nan nan nan nan nan nan nan nan nan 53 10 359 350 342 340 349 338 325 289 275 287 287 296 294 298 304 309 316 315 309 308 307 308 306 300 nan nan nan nan nan nan nan nan nan nan nan nan
nan nan nan nan nan nan nan nan nan nan nan nan nan 10 318 344 325 344 352 336 297 291 293 294 304 314 310 316 320 317 314 307 301 302 301 303 nan nan nan nan nan nan nan nan nan nan nan nan nan
nan nan nan nan nan nan nan nan nan nan nan nan nan 304 340 337 327 350 346 337 329 305 302 305 314 325 317 318 312 312 308 305 309 307 303 nan nan nan nan nan nan nan nan nan nan nan nan nan nan
nan nan nan nan nan nan nan nan nan nan nan nan nan nan nan 313 320 347 346 346 340 330 323 327 337 333 320 320 315 312 312 310 309 nan nan nan nan nan nan nan nan nan nan nan nan nan nan nan nan
nan nan nan nan nan nan nan nan nan nan nan nan nan nan nan nan 322 348 345 1 2 337 329 343 347 344 332 327 320 315 313 311 307 nan nan nan nan nan nan nan nan nan nan nan nan nan nan nan nan
nan nan nan nan nan nan nan nan nan nan nan nan nan nan nan nan 312 331 337 337 0 9 11 5 355 355 357 347 340 330 323 304 314 nan nan nan nan nan nan nan nan nan nan nan nan nan nan nan nan